| time (UTC) | temp F | wind direction | speed knots | gust knots | rain 1hr in | rain 24hr in | rain mn in | humidity % | barometer mb |
| 20260504070156 | 57 | 234 | 5.2 | 13.0 | 0.00 | 0.00 | 0.00 | 39 | 992.7 |
| 20260504060156 | 57 | 246 | 7.0 | 13.0 | 0.00 | 0.00 | 0.00 | 37 | 994.2 |
| 20260504050157 | 57 | 227 | 7.8 | 17.4 | 0.00 | 0.00 | 0.00 | 36 | 995.4 |
| 20260504045157 | 57 | 227 | 7.8 | 17.4 | 0.00 | 0.00 | 0.00 | 36 | 995.4 |
| 20260504044156 | 56 | 239 | 10.4 | 12.2 | 0.00 | 0.00 | 0.00 | 36 | 995.9 |
| 20260504043157 | 57 | 235 | 3.5 | 15.6 | 0.00 | 0.01 | 0.01 | 36 | 996.4 |
| 20260504042156 | 57 | 235 | 3.5 | 15.6 | 0.00 | 0.01 | 0.01 | 36 | 996.4 |
| 20260504041156 | 56 | 234 | 5.2 | 10.4 | 0.00 | 0.01 | 0.00 | 37 | 997.1 |
| 20260504040157 | 56 | 234 | 5.2 | 10.4 | 0.00 | 0.01 | 0.00 | 37 | 997.1 |
| 20260504035157 | 54 | 244 | 5.2 | 7.0 | 0.00 | 0.01 | 0.00 | 39 | 997.7 |
| 20260504034157 | 54 | 244 | 5.2 | 7.0 | 0.00 | 0.01 | 0.00 | 39 | 997.7 |
| 20260504033156 | 53 | 235 | 1.7 | 6.1 | 0.00 | 0.01 | 0.01 | 41 | 998.2 |
| 20260504032156 | 53 | 235 | 1.7 | 6.1 | 0.00 | 0.01 | 0.01 | 41 | 998.2 |
| 20260504031158 | 53 | 238 | 0.9 | 6.1 | 0.00 | 0.01 | 0.00 | 42 | 998.6 |
| 20260504030157 | 53 | 238 | 0.9 | 6.1 | 0.00 | 0.01 | 0.00 | 42 | 998.6 |
| 20260504025157 | 52 | 232 | 0.0 | 2.6 | 0.00 | 0.01 | 0.00 | 42 | 998.9 |
| 20260504024157 | 52 | 232 | 0.0 | 2.6 | 0.00 | 0.01 | 0.00 | 42 | 998.9 |
| 20260504023157 | 52 | 232 | 0.0 | 0.0 | 0.00 | 0.01 | 0.01 | 43 | 999.1 |
| 20260504022157 | 52 | 232 | 0.0 | 0.0 | 0.00 | 0.01 | 0.01 | 43 | 999.1 |
| 20260504021157 | 53 | 232 | 0.0 | 0.0 | 0.00 | 0.01 | 0.00 | 41 | 999.5 |
| 20260504020157 | 53 | 232 | 0.0 | 0.0 | 0.00 | 0.01 | 0.00 | 41 | 999.5 |
| 20260504015158 | 55 | 232 | 0.0 | 0.0 | 0.00 | 0.01 | 0.00 | 39 | 999.8 |
| 20260504014158 | 55 | 232 | 0.0 | 0.0 | 0.00 | 0.01 | 0.00 | 39 | 999.8 |
| 20260504013157 | 57 | 232 | 0.0 | 3.5 | 0.00 | 0.01 | 0.01 | 36 | 1000.2 |
| 20260504012158 | 58 | 239 | 0.0 | 7.0 | 0.00 | 0.01 | 0.01 | 34 | 1000.5 |
| 20260504011157 | 58 | 239 | 0.0 | 7.0 | 0.00 | 0.01 | 0.01 | 34 | 1000.5 |
| 20260504010157 | 59 | 281 | 0.9 | 5.2 | 0.00 | 0.01 | 0.00 | 33 | 1000.8 |
| 20260504005157 | 59 | 281 | 0.9 | 5.2 | 0.00 | 0.01 | 0.00 | 33 | 1000.8 |
| 20260504004157 | 59 | 194 | 0.9 | 6.1 | 0.00 | 0.01 | 0.01 | 33 | 1001.0 |
| 20260503222159 | 63 | 242 | 3.5 | 8.7 | 0.00 | 0.01 | 0.01 | 28 | 1001.7 |
| 20260503215159 | 63 | 246 | 1.7 | 9.6 | 0.00 | 0.01 | 0.00 | 28 | 1001.8 |
| 20260503214201 | 63 | 246 | 1.7 | 9.6 | 0.00 | 0.01 | 0.00 | 28 | 1001.8 |
| 20260503205159 | 63 | 109 | 5.2 | 11.3 | 0.00 | 0.01 | 0.00 | 27 | 1002.3 |
| 20260503204158 | 63 | 109 | 5.2 | 11.3 | 0.00 | 0.01 | 0.00 | 27 | 1002.3 |
| 20260503203159 | 63 | 233 | 6.1 | 8.7 | 0.00 | 0.01 | 0.01 | 25 | 1002.4 |
| 20260503202159 | 63 | 233 | 6.1 | 8.7 | 0.00 | 0.01 | 0.01 | 25 | 1002.4 |
| 20260503201159 | 62 | 33 | 3.5 | 10.4 | 0.00 | 0.01 | 0.00 | 24 | 1002.7 |
| 20260503200200 | 62 | 33 | 3.5 | 10.4 | 0.00 | 0.01 | 0.00 | 24 | 1002.7 |
| 20260503180159 | 61 | 176 | 1.7 | 13.9 | 0.00 | 0.01 | 0.00 | 27 | 1003.6 |
| 20260503175158 | 61 | 176 | 1.7 | 13.9 | 0.00 | 0.01 | 0.00 | 27 | 1003.6 |
| 20260503174159 | 60 | 317 | 3.5 | 11.3 | 0.00 | 0.01 | 0.01 | 26 | 1003.8 |
| 20260503173159 | 60 | 317 | 3.5 | 11.3 | 0.00 | 0.01 | 0.01 | 26 | 1003.8 |
| 20260503172158 | 59 | 241 | 1.7 | 12.2 | 0.00 | 0.01 | 0.01 | 25 | 1003.8 |
| 20260503171159 | 59 | 241 | 1.7 | 12.2 | 0.00 | 0.01 | 0.01 | 25 | 1003.8 |
| 20260503170158 | 61 | 284 | 3.5 | 9.6 | 0.00 | 0.01 | 0.00 | 24 | 1003.8 |